Flag for Canada Weather past 2 weeks in Calgary, Alberta, Canada

Now
63 °F

Passing clouds.


Feels Like: 63 °F
Forecast: 57 / 77 °F
Wind: 13 mph from South

Location: Calgary International

Current Time: Aug 2, 2014 at 3:00:49 AM

Latest Report: Aug 2, 2014 at 2:00 AM


Visibility: 15 mi

Pressure: 30.18 "Hg

Humidity: 73%

Dew point: 54 °F

Location of CalgaryLocation

Historic Weather in Calgary — Graph

°F

Calgary temperature yesterday

Maximum temperature yesterday: 81 °F (at 6:00 PM)
Minimum temperature yesterday: 57 °F (at 7:00 AM)
Average temperature yesterday: 69 °F

Past Weeks' High & Low Weather Summary

 TemperatureHumidityPressure
High90 °F (Jul 29, 4:00 PM)94% (Jul 20, 6:00 AM)30.28 "Hg (Jul 20, 6:00 AM)
Low50 °F (Jul 18, 5:00 AM)14% (Jul 30, 12:56 AM)29.55 "Hg (Jul 19, 7:00 PM)
Average66 °F58%30.00 "Hg
* Reported Jul 18 2:00 AM — Aug 2 2:00 AM, Calgary, Weather by CustomWeather, © 2014

Note: Actual official high and low records may vary slightly from our data, if they occured in-between our weather recording intervals... More about our weather records

Advertising

Calgary weather history for previous 24 hours

 ConditionsComfort  
Time TempWeatherWind HumidityBarometerVisibility
2:00 AM
Aug 2
63 °FPassing clouds.13 mph73%30.18 "Hg15 mi
1:00 AM64 °FPassing clouds.15 mph73%30.19 "Hg15 mi
12:00 AM64 °FPassing clouds.10 mph73%30.18 "Hg15 mi
11:00 PM
Aug 1
70 °FPassing clouds.9 mph64%30.19 "Hg15 mi
10:00 PM70 °FPartly sunny.10 mph60%30.19 "Hg15 mi
9:00 PM73 °FPartly sunny.14 mph57%30.18 "Hg30 mi
8:00 PM75 °FPartly sunny.15 mph50%30.16 "Hg30 mi
7:00 PM77 °FBroken clouds.16 mph47%30.16 "Hg40 mi
6:00 PM81 °FBroken clouds.12 mph37%30.15 "Hg40 mi
5:00 PM79 °FPartly sunny.12 mph39%30.16 "Hg40 mi
4:00 PM79 °FBroken clouds.9 mph39%30.19 "Hg40 mi
3:00 PM75 °FBroken clouds.3 mph47%30.20 "Hg40 mi
2:00 PM77 °FBroken clouds.9 mph42%30.20 "Hg40 mi
1:00 PM75 °FPartly sunny.9 mph44%30.22 "Hg40 mi
12:00 PM75 °FBroken clouds.2 mph50%30.22 "Hg40 mi
11:00 AM72 °FPartly sunny.7 mph53%30.24 "Hg40 mi
10:00 AM66 °FPartly sunny.12 mph68%30.24 "Hg30 mi
9:00 AM63 °FOvercast.12 mph68%30.25 "Hg40 mi
8:00 AM57 °FPartly sunny.6 mph72%30.21 "Hg30 mi
7:00 AM57 °FPartly cloudy.2 mph72%30.22 "Hg30 mi
6:00 AM59 °FPartly cloudy.2 mph68%30.21 "Hg20 mi
5:00 AM61 °FPassing clouds.3 mph68%30.18 "Hg15 mi
4:00 AM59 °FThunderstorms. Partly cloudy.12 mph77%30.18 "Hg11 mi
3:00 AM59 °FPartly cloudy.5 mph68%30.18 "Hg15 mi
Weather by CustomWeather, © 2014

See weather overviewHow to use our weather pages